Time,TemperatureF,DewpointF,PressureIn,WindDirection,WindDirectionDegrees,WindSpeedMPH,WindSpeedGustMPH,Humidity,HourlyPrecipIn,Conditions,Clouds,dailyrainin,SolarRadiationWatts/m^2,SoftwareType,DateUTC
2013-05-30 00:00:00,72.7,67.2,30.06,NW,315,1.0,4.0,83,0.00,,CLR,0.00,0.00,VWS V14.01,2013-05-30 04:00:00,
2013-05-30 00:30:00,72.0,66.2,30.06,NNW,338,2.0,5.0,82,0.00,,CLR,0.00,0.00,VWS V14.01,2013-05-30 04:30:00,
2013-05-30 01:00:00,71.3,65.2,30.06,NW,315,3.0,6.0,81,0.00,,CLR,0.00,0.00,VWS V14.01,2013-05-30 05:00:00,
2013-05-30 01:30:00,70.9,65.1,30.05,NW,315,3.0,6.0,82,0.00,,CLR,0.00,0.00,VWS V14.01,2013-05-30 05:30:00,
2013-05-30 02:00:00,70.6,64.8,30.05,NW,315,1.0,5.0,82,0.00,,CLR,0.00,0.00,VWS V14.01,2013-05-30 06:00:00,
2013-05-30 02:30:00,70.1,64.4,30.05,NW,315,1.0,5.0,82,0.00,,CLR,0.00,0.00,VWS V14.01,2013-05-30 06:30:00,
2013-05-30 03:00:00,67.9,63.6,30.05,SSE,158,1.0,11.0,86,0.00,,CLR,0.00,0.00,VWS V14.01,2013-05-30 07:00:00,
2013-05-30 03:30:00,68.1,64.4,30.05,SSE,158,0.0,3.0,88,0.00,,CLR,0.00,0.00,VWS V14.01,2013-05-30 07:30:00,
2013-05-30 04:00:00,67.6,64.2,30.05,SSE,158,0.0,1.0,89,0.00,,CLR,0.00,0.00,VWS V14.01,2013-05-30 08:00:00,
2013-05-30 04:30:00,67.6,63.9,30.07,SSE,158,0.0,3.0,88,0.00,,CLR,0.00,0.00,VWS V14.01,2013-05-30 08:30:00,
2013-05-30 05:00:00,67.1,63.4,30.08,SSE,158,0.0,4.0,88,0.00,,CLR,0.00,0.00,VWS V14.01,2013-05-30 09:00:00,
2013-05-30 05:30:00,66.6,62.9,30.09,SW,225,0.0,2.0,88,0.00,,CLR,0.00,0.00,VWS V14.01,2013-05-30 09:30:00,
2013-05-30 06:00:00,67.3,63.3,30.10,SW,225,0.0,3.0,87,0.00,,CLR,0.00,0.00,VWS V14.01,2013-05-30 10:00:00,
2013-05-30 06:30:00,67.6,63.3,30.10,SW,225,0.0,0.0,86,0.00,,CLR,0.00,0.00,VWS V14.01,2013-05-30 10:30:00,
2013-05-30 07:00:00,67.9,63.2,30.11,SW,225,0.0,0.0,85,0.00,,CLR,0.00,0.00,VWS V14.01,2013-05-30 11:00:00,
2013-05-30 07:30:00,67.9,63.9,30.12,SW,225,0.0,0.0,87,0.00,,CLR,0.00,5.00,VWS V14.01,2013-05-30 11:30:00,
2013-05-30 08:00:00,68.3,64.3,30.13,SW,225,0.0,0.0,87,0.00,,CLR,0.00,40.00,VWS V14.01,2013-05-30 12:00:00,
2013-05-30 08:30:00,69.3,63.9,30.13,SW,225,0.0,1.0,83,0.00,,CLR,0.00,109.00,VWS V14.01,2013-05-30 12:30:00,
2013-05-30 09:00:00,69.9,64.8,30.13,SW,225,0.0,4.0,84,0.00,,CLR,0.00,136.00,VWS V14.01,2013-05-30 13:00:00,
2013-05-30 09:30:00,69.9,64.5,30.14,WSW,248,0.0,4.0,83,0.00,,CLR,0.00,154.00,VWS V14.01,2013-05-30 13:30:00,
2013-05-30 10:00:00,71.6,64.4,30.15,WSW,248,0.0,2.0,78,0.00,,CLR,0.00,351.00,VWS V14.01,2013-05-30 14:00:00,
2013-05-30 10:30:00,72.3,65.4,30.15,WSW,248,0.0,4.0,79,0.00,,CLR,0.00,268.00,VWS V14.01,2013-05-30 14:30:00,
2013-05-30 11:00:00,72.8,64.4,30.15,NW,315,0.0,4.0,75,0.00,,CLR,0.00,266.00,VWS V14.01,2013-05-30 15:00:00,
2013-05-30 11:30:00,72.8,64.4,30.14,NE,45,1.0,5.0,75,0.00,,CLR,0.00,704.00,VWS V14.01,2013-05-30 15:30:00,
2013-05-30 12:00:00,73.7,64.5,30.13,ENE,68,1.0,5.0,73,0.00,,CLR,0.00,849.00,VWS V14.01,2013-05-30 16:00:00,
2013-05-30 12:30:00,76.0,63.0,30.13,ESE,112,1.0,5.0,64,0.00,,CLR,0.00,684.00,VWS V14.01,2013-05-30 16:30:00,
2013-05-30 13:00:00,76.5,62.5,30.13,ESE,112,0.0,4.0,62,0.00,,CLR,0.00,672.00,VWS V14.01,2013-05-30 17:00:00,
2013-05-30 13:30:00,77.2,62.7,30.12,ENE,68,0.0,5.0,61,0.00,,CLR,0.00,958.00,VWS V14.01,2013-05-30 17:30:00,
2013-05-30 14:00:00,76.5,61.6,30.11,ENE,68,1.0,5.0,60,0.00,,CLR,0.00,984.00,VWS V14.01,2013-05-30 18:00:00,
2013-05-30 14:30:00,78.3,60.8,30.10,ENE,68,1.0,5.0,55,0.00,,CLR,0.00,981.00,VWS V14.01,2013-05-30 18:30:00,
2013-05-30 15:00:00,79.0,61.0,30.09,ESE,112,0.0,5.0,54,0.00,,CLR,0.00,904.00,VWS V14.01,2013-05-30 19:00:00,
2013-05-30 15:30:00,79.4,61.8,30.08,WNW,292,2.0,9.0,55,0.00,,CLR,0.00,892.00,VWS V14.01,2013-05-30 19:30:00,
2013-05-30 16:00:00,80.9,60.0,30.07,SE,135,1.0,7.0,49,0.00,,CLR,0.00,920.00,VWS V14.01,2013-05-30 20:00:00,
2013-05-30 16:30:00,80.9,60.5,30.06,ESE,112,1.0,8.0,50,0.00,,CLR,0.00,873.00,VWS V14.01,2013-05-30 20:30:00,
2013-05-30 17:00:00,80.9,60.0,30.05,SE,135,1.0,6.0,49,0.00,,CLR,0.00,837.00,VWS V14.01,2013-05-30 21:00:00,
2013-05-30 17:30:00,81.8,60.8,30.05,East,90,1.0,5.0,49,0.00,,CLR,0.00,812.00,VWS V14.01,2013-05-30 21:30:00,
2013-05-30 18:00:00,82.2,61.7,30.04,ENE,68,1.0,9.0,50,0.00,,CLR,0.00,732.00,VWS V14.01,2013-05-30 22:00:00,
2013-05-30 18:30:00,81.6,62.3,30.03,ENE,68,1.0,6.0,52,0.00,,CLR,0.00,667.00,VWS V14.01,2013-05-30 22:30:00,
2013-05-30 19:00:00,81.4,61.0,30.03,East,90,1.0,5.0,50,0.00,,CLR,0.00,390.00,VWS V14.01,2013-05-30 23:00:00,
2013-05-30 19:30:00,79.6,66.8,30.02,WNW,292,0.0,3.0,65,0.00,,CLR,0.00,252.00,VWS V14.01,2013-05-30 23:30:00,
2013-05-30 20:00:00,77.6,67.5,30.03,WNW,292,0.0,2.0,71,0.00,,CLR,0.00,140.00,VWS V14.01,2013-05-31 00:00:00,
2013-05-30 20:30:00,76.7,65.8,30.02,WNW,292,0.0,3.0,69,0.00,,CLR,0.00,99.00,VWS V14.01,2013-05-31 00:30:00,
2013-05-30 21:00:00,76.8,66.7,30.02,WNW,292,0.0,1.0,71,0.00,,CLR,0.00,80.00,VWS V14.01,2013-05-31 01:00:00,
2013-05-30 21:30:00,76.1,67.6,30.02,WNW,292,0.0,1.0,75,0.00,,CLR,0.00,19.00,VWS V14.01,2013-05-31 01:30:00,
2013-05-30 22:00:00,76.0,68.3,30.03,WNW,292,0.0,1.0,77,0.00,,CLR,0.00,0.00,VWS V14.01,2013-05-31 02:00:00,
2013-05-30 22:30:00,75.6,67.5,30.03,NNW,338,0.0,1.0,76,0.00,,CLR,0.00,0.00,VWS V14.01,2013-05-31 02:30:00,
2013-05-30 23:00:00,75.3,68.0,30.03,NNW,338,0.0,0.0,78,0.00,,CLR,0.00,0.00,VWS V14.01,2013-05-31 03:00:00,
2013-05-30 23:30:00,74.7,68.1,30.05,NNW,338,0.0,0.0,80,0.00,,CLR,0.00,0.00,VWS V14.01,2013-05-31 03:30:00,